Tracking 19192 objects as of 19-Jun-2018
HD Live streaming from Space Station
objects crossing your sky now

FENGYUN 1C DEB

Track FENGYUN 1C DEB now!
10-day predictions


NORAD ID: 30927
Int'l Code: 1999-025AZR
Perigee: 825.5 km
Apogee: 997.0 km
Inclination: 99.3 °
Period: 103.1 minutes
Semi major axis: 7282 km
RCS: 0.0086 m2 (small)
Launch date: May 10, 1999
Source: People's Republic of China (PRC)
Launch site: Taiyaun Space Center, China (TSC)

Note: This is SATELLITE DEBRIS
aabbcc
Your satellite tracking list
Your tracking list is empty




NASA's NSSDC Master Catalog

Two Line Element Set (TLE):
1 30927U 99025AZR 18169.43762216 +.00000539 +00000-0 +39617-3 0  9998
2 30927 099.2712 157.8060 0117773 311.8955 202.5645 13.97032852574086
Source of the keplerian elements: AFSPC